This is the latest recevied weather packets stored in our database for station/object K1AWR. If no packets are shown the sender has not sent any weather packets the latest 1 day(s).
| Time | Temp. | Humidity | Pressure | Rain* | Wind** | Luminosity | Snow |
|---|---|---|---|---|---|---|---|
| 1778059571 | 13.89° C | 82% | 1010.2 hPa | 0 mm | 0.45 m/s, 216° | 0 W/m² | - |
| 1778059268 | 13.89° C | 82% | 1010.2 hPa | 0 mm | 0.89 m/s, 161° | 0 W/m² | - |
| 1778058966 | 14.44° C | 82% | 1010.2 hPa | 0 mm | 0 m/s | 0 W/m² | - |
| 1778058663 | 13.89° C | 82% | 1010.3 hPa | 0 mm | 0.45 m/s, 181° | 0 W/m² | - |
| 1778058361 | 13.89° C | 82% | 1010.3 hPa | 0 mm | 0 m/s | 0 W/m² | - |
| 1778058057 | 14.44° C | 81% | 1010.2 hPa | 0 mm | 0 m/s | 0 W/m² | - |
| 1778057754 | 14.44° C | 81% | 1010.3 hPa | 0 mm | 0.45 m/s, 202° | 0 W/m² | - |
| 1778057450 | 14.44° C | 81% | 1010.2 hPa | 0 mm | 1.34 m/s, 171° | 0 W/m² | - |
| 1778057147 | 14.44° C | 81% | 1010.1 hPa | 0 mm | 0 m/s | 0 W/m² | - |
| 1778056843 | 14.44° C | 81% | 1010.5 hPa | 0 mm | 0 m/s | 0 W/m² | - |
| 1778056541 | 14.44° C | 80% | 1010.3 hPa | 0 mm | 0 m/s | 0 W/m² | - |
| 1778056238 | 14.44° C | 80% | 1010.5 hPa | 0 mm | 0.89 m/s, 165° | 0 W/m² | - |
| 1778055934 | 14.44° C | 80% | 1010.3 hPa | 0 mm | 0.45 m/s, 187° | 0 W/m² | - |
| 1778055630 | 14.44° C | 80% | 1010.5 hPa | 0 mm | 0.45 m/s, 202° | 0 W/m² | - |
| 1778055329 | 14.44° C | 80% | 1010.4 hPa | 0 mm | 0.45 m/s, 185° | 0 W/m² | - |
| 1778055026 | 15° C | 79% | 1010.2 hPa | 0 mm | 0.89 m/s, 166° | 0 W/m² | - |
| 1778054723 | 15° C | 79% | 1010.2 hPa | 0 mm | 0.45 m/s, 174° | 0 W/m² | - |
| 1778054420 | 14.44° C | 80% | 1010.4 hPa | 0 mm | 0.89 m/s, 156° | 0 W/m² | - |
| 1778054118 | 14.44° C | 79% | 1010.4 hPa | 0 mm | 0.89 m/s, 184° | 0 W/m² | - |
| 1778053814 | 15° C | 79% | 1010.3 hPa | 0 mm | 0.45 m/s, 193° | 0 W/m² | - |
| 1778053512 | 15° C | 79% | 1010.4 hPa | 0 mm | 0.89 m/s, 179° | 0 W/m² | - |
| 1778053209 | 15° C | 79% | 1010.4 hPa | 0 mm | 0.45 m/s, 253° | 0 W/m² | - |
| 1778052907 | 15° C | 79% | 1010.4 hPa | 0 mm | 0 m/s | 0 W/m² | - |
| 1778052604 | 15° C | 79% | 1010.3 hPa | 0 mm | 0.45 m/s, 184° | 0 W/m² | - |
| 1778052301 | 15° C | 78% | 1010.3 hPa | 0 mm | 0.45 m/s, 170° | 0 W/m² | - |
* Rain latest hour (hover to see other rain measurements)
** Current wind speed in m/s (hover to see current wind gust speed)